Time,TemperatureF,DewpointF,PressureIn,WindDirection,WindDirectionDegrees,WindSpeedMPH,WindSpeedGustMPH,Humidity,HourlyPrecipIn,Conditions,Clouds,dailyrainin,SolarRadiationWatts/m^2,SoftwareType,DateUTC
2013-03-05 00:02:00,44.9,32.0,30.12,WSW,252,0.0,0.0,62,0.00,,,0.00,0,weatherlink.com 1.10,2013-03-05 05:02:00,
2013-03-05 00:17:00,44.9,33.0,30.12,WSW,252,0.0,1.0,63,0.00,,,0.00,0,weatherlink.com 1.10,2013-03-05 05:17:00,
2013-03-05 00:32:00,45.4,32.0,30.11,WSW,252,0.0,1.0,60,0.00,,,0.00,0,weatherlink.com 1.10,2013-03-05 05:32:00,
2013-03-05 00:47:00,45.3,33.0,30.10,WSW,252,0.0,0.0,62,0.00,,,0.00,0,weatherlink.com 1.10,2013-03-05 05:47:00,
2013-03-05 01:02:00,45.0,33.0,30.11,WSW,252,0.0,0.0,62,0.00,,,0.00,0,weatherlink.com 1.10,2013-03-05 06:02:00,
2013-03-05 01:17:00,45.0,33.0,30.11,WSW,252,0.0,0.0,63,0.00,,,0.00,0,weatherlink.com 1.10,2013-03-05 06:17:00,
2013-03-05 01:32:00,43.5,33.0,30.11,WSW,252,0.0,0.0,67,0.00,,,0.00,0,weatherlink.com 1.10,2013-03-05 06:32:00,
2013-03-05 01:47:00,42.8,32.0,30.11,WSW,252,0.0,0.0,67,0.00,,,0.00,0,weatherlink.com 1.10,2013-03-05 06:47:00,
2013-03-05 02:02:00,41.7,33.0,30.12,WSW,252,0.0,0.0,70,0.00,,,0.00,0,weatherlink.com 1.10,2013-03-05 07:02:00,
2013-03-05 02:17:00,40.7,32.0,30.11,WSW,252,0.0,0.0,70,0.00,,,0.00,0,weatherlink.com 1.10,2013-03-05 07:17:00,
2013-03-05 02:32:00,40.7,32.0,30.11,WSW,252,0.0,2.0,70,0.00,,,0.00,0,weatherlink.com 1.10,2013-03-05 07:32:00,
2013-03-05 02:47:00,40.0,31.0,30.11,WSW,252,0.0,0.0,71,0.00,,,0.00,0,weatherlink.com 1.10,2013-03-05 07:47:00,
2013-03-05 03:02:00,39.0,31.0,30.11,WSW,252,0.0,0.0,74,0.00,,,0.00,0,weatherlink.com 1.10,2013-03-05 08:02:00,
2013-03-05 03:17:00,38.4,31.0,30.11,WSW,252,0.0,0.0,76,0.00,,,0.00,0,weatherlink.com 1.10,2013-03-05 08:17:00,
2013-03-05 03:32:00,37.9,32.0,30.11,WSW,252,0.0,0.0,78,0.00,,,0.00,0,weatherlink.com 1.10,2013-03-05 08:32:00,
2013-03-05 03:47:00,38.2,32.0,30.11,WSW,252,0.0,0.0,79,0.00,,,0.00,0,weatherlink.com 1.10,2013-03-05 08:47:00,
2013-03-05 04:02:00,38.9,32.0,30.10,WSW,252,0.0,1.0,77,0.00,,,0.00,0,weatherlink.com 1.10,2013-03-05 09:02:00,
2013-03-05 04:17:00,38.8,32.0,30.10,WSW,252,0.0,0.0,77,0.00,,,0.00,0,weatherlink.com 1.10,2013-03-05 09:17:00,
2013-03-05 04:32:00,40.5,32.0,30.10,WSW,252,0.0,2.0,73,0.00,,,0.00,0,weatherlink.com 1.10,2013-03-05 09:32:00,
2013-03-05 04:47:00,41.4,33.0,30.09,WSW,240,0.0,3.0,71,0.00,,,0.00,0,weatherlink.com 1.10,2013-03-05 09:47:00,
2013-03-05 05:02:00,42.7,33.0,30.08,SW,236,1.0,3.0,69,0.00,,,0.00,0,weatherlink.com 1.10,2013-03-05 10:02:00,
2013-03-05 05:17:00,43.6,33.0,30.08,SW,225,0.0,4.0,67,0.00,,,0.00,0,weatherlink.com 1.10,2013-03-05 10:17:00,
2013-03-05 05:32:00,43.8,33.0,30.08,SW,225,0.0,3.0,66,0.00,,,0.00,0,weatherlink.com 1.10,2013-03-05 10:32:00,
2013-03-05 05:47:00,44.3,34.0,30.09,SW,225,0.0,2.0,66,0.00,,,0.00,0,weatherlink.com 1.10,2013-03-05 10:47:00,
2013-03-05 06:02:00,44.8,34.0,30.08,SW,219,2.0,3.0,66,0.00,,,0.00,0,weatherlink.com 1.10,2013-03-05 11:02:00,
2013-03-05 06:17:00,45.1,34.0,30.08,SW,215,0.0,6.0,65,0.00,,,0.00,0,weatherlink.com 1.10,2013-03-05 11:17:00,
2013-03-05 06:32:00,45.3,34.0,30.08,SW,234,0.0,4.0,65,0.00,,,0.00,0,weatherlink.com 1.10,2013-03-05 11:32:00,
2013-03-05 06:47:00,45.3,34.0,30.08,SW,217,0.0,4.0,66,0.00,,,0.00,0,weatherlink.com 1.10,2013-03-05 11:47:00,
2013-03-05 07:02:00,45.3,35.0,30.08,SW,219,0.0,3.0,67,0.00,,,0.00,0,weatherlink.com 1.10,2013-03-05 12:02:00,
2013-03-05 07:17:00,45.4,35.0,30.08,SW,225,0.0,3.0,67,0.00,,,0.00,26,weatherlink.com 1.10,2013-03-05 12:17:00,
2013-03-05 07:32:00,45.8,35.0,30.07,SW,221,0.0,2.0,67,0.00,,,0.00,44,weatherlink.com 1.10,2013-03-05 12:32:00,
2013-03-05 07:47:00,46.2,36.0,30.07,SSW,211,0.0,4.0,67,0.00,,,0.00,39,weatherlink.com 1.10,2013-03-05 12:47:00,
2013-03-05 08:02:00,46.6,36.0,30.07,SW,217,1.0,2.0,67,0.00,,,0.00,33,weatherlink.com 1.10,2013-03-05 13:02:00,
2013-03-05 08:17:00,47.0,36.0,30.07,SW,217,0.0,6.0,66,0.00,,,0.00,33,weatherlink.com 1.10,2013-03-05 13:17:00,
2013-03-05 08:33:00,47.7,36.0,30.07,South,188,0.0,5.0,65,0.00,,,0.00,62,weatherlink.com 1.10,2013-03-05 13:33:00,
2013-03-05 08:48:00,48.4,37.0,30.06,SW,231,5.0,6.0,65,0.00,,,0.00,44,weatherlink.com 1.10,2013-03-05 13:48:00,
2013-03-05 09:03:00,48.8,37.0,30.06,SSW,208,6.0,8.0,64,0.00,,,0.00,44,weatherlink.com 1.10,2013-03-05 14:03:00,
2013-03-05 09:18:00,48.8,37.0,30.06,SW,230,0.0,7.0,65,0.00,,,0.00,35,weatherlink.com 1.10,2013-03-05 14:18:00,
2013-03-05 09:33:00,48.7,38.0,30.06,SW,229,2.0,7.0,66,0.00,,,0.00,39,weatherlink.com 1.10,2013-03-05 14:33:00,
2013-03-05 09:48:00,48.8,38.0,30.06,WSW,242,0.0,8.0,66,0.00,,,0.00,60,weatherlink.com 1.10,2013-03-05 14:48:00,
2013-03-05 10:03:00,49.2,38.0,30.05,SW,231,0.0,6.0,65,0.00,,,0.00,72,weatherlink.com 1.10,2013-03-05 15:03:00,
2013-03-05 10:18:00,50.1,38.0,30.04,WSW,240,1.0,5.0,63,0.00,,,0.00,153,weatherlink.com 1.10,2013-03-05 15:18:00,
2013-03-05 10:33:00,51.9,38.0,30.03,SSW,209,0.0,6.0,60,0.00,,,0.00,204,weatherlink.com 1.10,2013-03-05 15:33:00,
2013-03-05 10:48:00,54.4,39.0,30.02,WSW,254,5.0,8.0,56,0.00,,,0.00,269,weatherlink.com 1.10,2013-03-05 15:48:00,
2013-03-05 11:03:00,55.8,40.0,30.02,SW,227,6.0,12.0,55,0.00,,,0.00,232,weatherlink.com 1.10,2013-03-05 16:03:00,
2013-03-05 11:18:00,57.2,41.0,30.01,WSW,254,8.0,11.0,55,0.00,,,0.00,176,weatherlink.com 1.10,2013-03-05 16:18:00,
2013-03-05 11:33:00,59.0,43.0,30.01,SW,217,6.0,8.0,55,0.00,,,0.00,295,weatherlink.com 1.10,2013-03-05 16:33:00,
2013-03-05 11:48:00,59.5,44.0,30.00,WSW,252,3.0,14.0,57,0.00,,,0.00,306,weatherlink.com 1.10,2013-03-05 16:48:00,
2013-03-05 12:03:00,60.6,46.0,29.99,WSW,249,7.0,12.0,58,0.00,,,0.00,248,weatherlink.com 1.10,2013-03-05 17:03:00,
2013-03-05 12:18:00,61.2,47.0,29.98,WSW,246,7.0,13.0,60,0.00,,,0.00,260,weatherlink.com 1.10,2013-03-05 17:18:00,
2013-03-05 12:33:00,63.8,49.0,29.96,SW,214,5.0,13.0,58,0.00,,,0.00,135,weatherlink.com 1.10,2013-03-05 17:33:00,
2013-03-05 12:48:00,65.2,50.0,29.95,WSW,250,7.0,14.0,58,0.00,,,0.00,167,weatherlink.com 1.10,2013-03-05 17:48:00,
2013-03-05 13:03:00,66.1,51.0,29.94,SSW,197,8.0,17.0,59,0.00,,,0.00,202,weatherlink.com 1.10,2013-03-05 18:03:00,
2013-03-05 13:18:00,67.0,52.0,29.93,West,261,1.0,12.0,58,0.00,,,0.00,139,weatherlink.com 1.10,2013-03-05 18:18:00,
2013-03-05 13:33:00,66.8,52.0,29.92,SSW,196,0.0,15.0,60,0.00,,,0.00,279,weatherlink.com 1.10,2013-03-05 18:33:00,
2013-03-05 13:49:00,67.4,53.0,29.91,SW,236,8.0,20.0,60,0.00,,,0.00,299,weatherlink.com 1.10,2013-03-05 18:49:00,
2013-03-05 14:04:00,66.5,53.0,29.90,SSW,207,6.0,16.0,63,0.00,,,0.00,214,weatherlink.com 1.10,2013-03-05 19:04:00,
2013-03-05 14:19:00,65.9,53.0,29.89,West,279,3.0,14.0,64,0.00,,,0.00,49,weatherlink.com 1.10,2013-03-05 19:19:00,
2013-03-05 14:34:00,63.8,53.0,29.89,WSW,249,8.0,13.0,67,0.00,,,0.00,95,weatherlink.com 1.10,2013-03-05 19:34:00,
2013-03-05 14:49:00,63.1,53.0,29.89,WSW,244,8.0,15.0,69,0.00,,,0.00,88,weatherlink.com 1.10,2013-03-05 19:49:00,
2013-03-05 15:04:00,61.4,54.0,29.88,WSW,240,0.0,12.0,77,0.00,,,0.00,209,weatherlink.com 1.10,2013-03-05 20:04:00,
2013-03-05 15:19:00,62.8,54.0,29.86,SSW,204,6.0,11.0,73,0.00,,,0.00,294,weatherlink.com 1.10,2013-03-05 20:19:00,
2013-03-05 15:34:00,63.3,54.0,29.85,WSW,249,5.0,14.0,72,0.00,,,0.00,459,weatherlink.com 1.10,2013-03-05 20:34:00,
2013-03-05 15:49:00,63.5,54.0,29.85,SW,224,2.0,14.0,71,0.00,,,0.00,153,weatherlink.com 1.10,2013-03-05 20:49:00,
2013-03-05 16:04:00,64.1,54.0,29.83,WSW,257,9.0,17.0,70,0.00,,,0.00,153,weatherlink.com 1.10,2013-03-05 21:04:00,
2013-03-05 16:19:00,64.3,54.0,29.82,SW,225,3.0,12.0,69,0.00,,,0.00,98,weatherlink.com 1.10,2013-03-05 21:19:00,
2013-03-05 16:34:00,63.5,54.0,29.83,SSW,203,7.0,15.0,70,0.00,,,0.00,56,weatherlink.com 1.10,2013-03-05 21:34:00,
2013-03-05 16:49:00,62.9,54.0,29.83,SW,223,4.0,12.0,72,0.00,,,0.00,30,weatherlink.com 1.10,2013-03-05 21:49:00,
2013-03-05 17:04:00,62.3,54.0,29.82,SSW,211,2.0,9.0,73,0.00,,,0.00,25,weatherlink.com 1.10,2013-03-05 22:04:00,
2013-03-05 17:19:00,62.1,53.0,29.80,SW,216,0.0,7.0,73,0.00,,,0.00,46,weatherlink.com 1.10,2013-03-05 22:19:00,
2013-03-05 17:34:00,62.1,53.0,29.80,SW,227,4.0,10.0,73,0.00,,,0.00,25,weatherlink.com 1.10,2013-03-05 22:34:00,
2013-03-05 17:49:00,61.9,53.0,29.77,SW,215,0.0,6.0,73,0.00,,,0.00,37,weatherlink.com 1.10,2013-03-05 22:49:00,
2013-03-05 18:04:00,61.4,53.0,29.75,SW,215,3.0,7.0,73,0.00,,,0.00,7,weatherlink.com 1.10,2013-03-05 23:04:00,
2013-03-05 18:19:00,61.4,53.0,29.75,SW,225,0.0,6.0,74,0.00,,,0.00,0,weatherlink.com 1.10,2013-03-05 23:19:00,
2013-03-05 18:34:00,61.6,54.0,29.73,SW,227,6.0,8.0,75,0.00,,,0.00,0,weatherlink.com 1.10,2013-03-05 23:34:00,
2013-03-05 18:49:00,61.8,54.0,29.73,SSW,200,2.0,7.0,75,0.00,,,0.00,0,weatherlink.com 1.10,2013-03-05 23:49:00,
2013-03-05 19:04:00,61.7,54.0,29.70,SW,221,7.0,7.0,76,0.00,,,0.00,0,weatherlink.com 1.10,2013-03-06 00:04:00,
2013-03-05 19:19:00,61.9,55.0,29.70,SSW,209,0.0,8.0,77,0.00,,,0.00,0,weatherlink.com 1.10,2013-03-06 00:19:00,
2013-03-05 19:34:00,61.1,55.0,29.71,SSW,213,0.0,6.0,81,0.01,,,0.01,0,weatherlink.com 1.10,2013-03-06 00:34:00,
2013-03-05 19:49:00,60.0,56.0,29.69,SW,217,3.0,8.0,85,0.02,,,0.02,0,weatherlink.com 1.10,2013-03-06 00:49:00,
2013-03-05 20:04:00,59.0,56.0,29.74,SW,232,3.0,15.0,89,0.03,,,0.03,0,weatherlink.com 1.10,2013-03-06 01:04:00,
2013-03-05 20:19:00,58.7,56.0,29.73,WSW,246,3.0,5.0,91,0.03,,,0.03,0,weatherlink.com 1.10,2013-03-06 01:19:00,
2013-03-05 20:34:00,58.5,56.0,29.72,SW,219,5.0,8.0,92,0.02,,,0.03,0,weatherlink.com 1.10,2013-03-06 01:34:00,
2013-03-05 20:49:00,58.3,56.0,29.73,West,261,0.0,6.0,93,0.01,,,0.03,0,weatherlink.com 1.10,2013-03-06 01:49:00,
2013-03-05 21:04:00,58.0,56.0,29.73,WSW,241,0.0,6.0,93,0.01,,,0.04,0,weatherlink.com 1.10,2013-03-06 02:04:00,
2013-03-05 21:19:00,57.8,56.0,29.73,WSW,254,0.0,8.0,93,0.01,,,0.04,0,weatherlink.com 1.10,2013-03-06 02:19:00,
2013-03-05 21:34:00,57.7,56.0,29.73,West,261,0.0,11.0,93,0.01,,,0.04,0,weatherlink.com 1.10,2013-03-06 02:34:00,
2013-03-05 21:49:00,57.7,55.0,29.75,NNW,333,5.0,14.0,92,0.01,,,0.04,0,weatherlink.com 1.10,2013-03-06 02:49:00,
2013-03-05 22:04:00,55.8,50.0,29.76,North,5,6.0,17.0,81,0.00,,,0.04,0,weatherlink.com 1.10,2013-03-06 03:04:00,
2013-03-05 22:19:00,54.5,47.0,29.76,NE,44,5.0,11.0,77,0.00,,,0.04,0,weatherlink.com 1.10,2013-03-06 03:19:00,
2013-03-05 22:34:00,53.0,42.0,29.77,NNW,348,2.0,17.0,67,0.00,,,0.04,0,weatherlink.com 1.10,2013-03-06 03:34:00,
2013-03-05 22:49:00,51.8,41.0,29.78,WNW,296,17.0,23.0,66,0.00,,,0.04,0,weatherlink.com 1.10,2013-03-06 03:49:00,
2013-03-05 23:04:00,50.7,40.0,29.78,NW,313,1.0,18.0,68,0.00,,,0.04,0,weatherlink.com 1.10,2013-03-06 04:04:00,
2013-03-05 23:19:00,49.8,40.0,29.77,NW,306,13.0,23.0,69,0.00,,,0.04,0,weatherlink.com 1.10,2013-03-06 04:19:00,
2013-03-05 23:34:00,49.0,40.0,29.77,NNW,336,2.0,18.0,70,0.00,,,0.04,0,weatherlink.com 1.10,2013-03-06 04:34:00,
2013-03-05 23:49:00,48.2,38.0,29.78,NNW,346,10.0,21.0,69,0.00,,,0.04,0,weatherlink.com 1.10,2013-03-06 04:49:00,